Location: Boitzum
(52.1496°N, 9.6943°E)
Time: 00:36:40
(UTC+00:00)

Cosmos 1844 Rocket - Pass Details

Date: 13 January 2026
Orbit: 822 x 845 km, 71.0° (Epoch: 17 February)

Event Time Altitude Azimuth Distance (km) Brightness Sun altitude
Exits shadow 03:22:58 29° 38° (NE) 1,512 4.3 -36.1°
Drops below altitude 10° 03:25:38 10° 34° (NNE) 2,473 5.6 -35.7°
Sets 03:28:06 0° 32° (NNE) 3,413 6.4 -35.3°
